Wind_Speed
27 27 27 28 28 28 27 26 27 27 27 27 28 28 28 29 30 30 31 32 32 32 33 33 33 33 33 34 34 34 34 35 35 35 36 36 37 38 39 39 39 39 39
27 28 28 28 28 27 27 26 26 26 26 27 27 27 27 28 29 29 30 31 32 32 32 33 32 32 32 33 34 34 34 34 35 35 35 36 37 37 37 37 38 38 37
28 27 27 27 27 26 26 25 25 25 26 27 27 27 27 27 28 28 28 29 29 30 31 31 31 31 32 33 33 33 33 33 33 34 35 36 36 36 35 36 36 36 37
28 27 27 26 25 25 24 24 24 25 25 25 25 25 25 25 25 25 26 27 28 29 29 29 29 30 30 30 31 31 32 32 33 33 34 33 34 34 34 34 34 34 34
27 26 25 24 24 24 23 24 23 23 23 23 22 23 23 23 24 24 25 25 26 26 26 27 27 28 29 29 29 30 30 30 30 31 31 31 31 31 31 32 32 31 31
25 24 23 22 22 21 21 22 22 21 21 21 21 21 21 22 21 22 23 24 24 25 25 25 26 27 27 27 28 28 28 28 28 28 29 29 29 29 29 29 29 28 27
22 21 20 20 19 19 19 19 19 18 18 19 19 18 19 20 20 20 20 21 21 21 21 22 22 22 23 23 24 25 25 24 25 26 26 27 27 27 27 26 25 25 24
18 17 17 16 16 16 16 15 15 15 16 16 16 16 17 17 17 17 17 17 18 18 18 18 19 19 19 20 20 21 22 22 23 24 24 24 24 23 23 22 22 21 20
15 14 14 13 13 13 13 13 13 13 13 13 14 14 14 14 14 14 14 15 15 15 16 16 16 16 16 17 18 19 19 20 21 21 20 20 19 19 18 18 18 19 18
13 12 11 10 11 11 10 11 11 10 11 11 11 11 12 11 12 12 12 12 12 12 12 13 14 14 15 16 16 16 16 16 16 16 16 16 16 15 15 15 15 15 14
10 10 10 9 8 8 8 8 8 9 9 8 8 9 9 9 10 11 10 10 9 10 10 11 12 13 13 13 13 13 13 13 13 13 13 12 12 11 11 10 10 9 10
8 7 8 7 7 7 6 6 6 7 7 6 6 6 6 6 7 7 7 7 8 9 9 9 9 10 11 11 10 10 10 10 10 11 10 10 9 9 8 8 8 8 8
6 6 6 7 6 5 5 4 4 5 5 5 5 5 5 5 5 5 5 5 6 6 7 7 8 8 8 8 8 9 9 9 9 9 9 8 8 8 7 7 6 6 6
5 5 6 6 5 4 3 3 3 3 4 4 4 4 3 3 3 3 3 4 4 4 5 6 6 5 6 6 7 7 7 7 7 7 7 6 6 5 5 5 5 5 5
5 5 6 6 5 5 5 5 4 4 3 3 3 2 2 2 2 1 1 2 2 3 3 4 4 4 5 5 6 6 6 6 6 5 5 4 4 3 3 3 3 4 5
7 7 8 8 8 7 7 7 7 7 6 6 6 5 5 4 4 3 3 3 3 3 4 4 4 4 4 5 5 5 5 4 4 4 3 3 3 2 3 3 3 4 4
9 9 10 10 10 9 10 10 10 10 10 9 9 8 8 7 7 6 6 6 5 5 5 5 5 5 5 5 5 5 5 4 4 4 3 3 3 3 3 3 4 4 5
10 10 11 11 11 11 11 11 11 11 11 11 11 10 10 10 9 8 8 8 7 7 7 7 7 7 6 6 6 6 6 6 5 4 4 4 3 3 3 4 4 5 5
11 12 12 13 13 13 12 12 12 13 13 13 12 12 12 11 11 11 10 10 9 9 9 9 9 8 8 8 8 7 7 7 6 5 5 4 4 4 4 4 5 5 5
13 14 14 14 14 14 14 14 14 14 14 14 14 13 13 13 12 12 11 11 10 10 10 10 9 9 9 9 8 8 8 8 7 7 6 5 5 4 4 5 5 5 6
14 14 14 14 15 15 15 15 15 15 15 14 14 14 14 13 13 13 13 12 12 11 11 10 10 10 10 10 9 9 9 8 8 8 7 7 6 6 5 6 6 7 7
15 15 15 15 16 16 16 16 16 16 16 15 15 15 15 14 14 14 14 13 13 12 12 11 11 10 10 10 10 10 9 9 8 8 8 8 7 7 7 7 8 8 9
15 15 16 16 16 16 16 17 17 17 17 16 16 16 15 15 15 14 13 13 13 13 12 12 12 11 11 11 11 10 10 10 9 9 9 8 8 8 9 9 9 10 11
16 16 16 16 16 16 16 16 16 16 16 16 16 16 16 15 14 14 14 13 13 13 12 12 12 12 11 11 11 11 11 10 10 10 9 9 9 9 10 10 11 12 13
15 15 15 15 15 15 15 15 16 16 15 15 15 15 15 14 14 14 14 13 13 13 12 12 12 12 12 11 11 11 11 11 11 10 10 10 11 11 12 12 13 14 15
14 14 14 14 15 15 15 15 15 15 14 14 14 14 14 14 13 13 13 13 13 12 12 12 12 12 12 12 12 12 11 11 12 12 12 12 13 14 14 15 16 17 18
Wind_Direction
285 283 282 280 280 279 276 274 273 271 269 268 266 265 264 263 262 260 258 257 260 259 259 258 258 258 258 259 260 260 261 263 263 265 267 268 269 271 272 273 272 273 276
285 283 282 281 280 277 275 274 273 271 269 269 268 266 266 265 263 261 260 259 259 257 258 258 258 259 260 261 262 262 262 263 264 265 268 269 271 272 273 274 275 277 278
284 282 281 280 279 276 274 272 270 269 268 267 266 266 265 263 262 261 260 259 259 259 259 258 259 262 262 262 262 262 262 263 265 266 269 270 272 275 275 275 277 279 279
285 282 280 279 278 276 274 272 271 270 268 267 267 265 264 263 262 263 263 262 262 261 261 261 262 263 264 263 262 263 264 266 268 270 272 273 275 275 276 277 279 280 280
285 283 280 279 278 276 273 271 271 271 269 268 268 266 263 263 262 262 263 262 261 259 260 261 261 263 264 264 264 265 266 266 268 271 273 273 275 276 277 278 279 279 280
286 284 283 280 278 276 274 272 270 270 268 268 267 264 261 262 263 263 262 260 259 260 261 261 262 263 265 265 266 265 265 267 268 271 274 275 276 277 277 278 278 279 279
287 284 282 280 277 275 274 273 271 269 268 268 268 266 265 264 263 261 259 258 260 261 261 261 263 263 266 266 266 265 265 267 271 274 276 277 277 276 276 276 277 277 276
292 288 284 281 277 276 274 273 272 272 273 270 269 268 267 263 262 258 257 258 258 258 258 260 262 264 267 270 270 269 270 272 275 277 277 277 277 278 277 276 274 273 274
297 294 289 282 279 279 277 274 273 273 272 272 271 269 266 260 258 256 256 256 259 259 259 263 266 269 273 277 276 275 274 276 278 278 280 280 279 278 277 273 271 271 272
301 296 294 289 286 285 280 274 270 271 274 273 271 268 265 259 256 256 258 261 262 265 267 268 270 274 277 282 281 280 279 280 281 281 282 282 280 279 277 275 272 272 272
306 301 300 299 298 290 283 278 273 273 277 278 274 271 267 263 259 259 258 263 269 271 273 275 276 280 282 281 281 284 285 286 287 285 284 282 279 279 277 277 274 271 273
316 312 313 313 309 302 294 288 283 280 281 282 280 277 270 264 257 258 264 272 274 274 276 280 285 288 288 284 285 287 288 289 290 289 286 282 277 278 279 278 277 276 276
331 333 332 330 326 319 313 300 292 287 283 288 286 280 273 263 263 267 273 279 282 284 285 287 294 296 293 295 297 295 293 292 293 294 291 287 282 278 276 277 279 279 280
348 348 349 350 353 360 5 0 340 319 303 299 294 287 287 286 282 280 283 289 299 297 295 298 300 300 304 309 307 303 297 295 296 297 296 294 292 285 279 279 279 284 288
20 22 21 24 38 42 42 43 38 33 30 25 23 17 7 9 5 341 308 300 301 312 320 324 327 330 326 319 321 315 306 301 302 303 302 299 300 301 300 290 288 291 295
47 48 46 51 58 59 59 57 54 53 53 54 55 58 62 58 53 52 50 40 31 24 13 4 354 349 348 347 345 344 339 331 327 328 324 323 321 314 309 307 304 304 303
58 57 55 56 60 61 60 61 62 62 61 60 59 62 63 61 60 61 58 55 55 50 41 31 24 18 14 12 12 11 10 8 4 357 351 343 337 329 325 321 319 317 315
64 61 60 60 61 63 64 65 64 62 61 62 63 63 63 63 63 64 61 62 60 55 47 41 38 35 32 29 28 27 25 20 12 4 358 353 346 339 334 330 328 326 323
68 68 68 68 67 65 65 65 64 64 66 66 66 66 65 65 65 64 62 61 58 54 51 48 42 39 38 35 33 30 27 26 21 16 8 1 354 346 340 338 337 336 333
74 73 71 69 67 64 64 66 67 68 68 68 68 67 67 67 66 65 62 61 58 55 50 47 44 41 39 38 36 34 31 30 28 26 23 16 9 1 355 351 346 343 339
75 73 70 69 67 66 66 68 70 70 68 68 68 69 68 67 65 64 62 59 57 54 51 48 46 44 41 39 35 31 28 27 27 25 24 20 14 8 359 351 345 339 335
76 75 73 72 71 70 68 68 68 68 68 68 68 68 67 65 63 62 59 56 53 50 47 46 45 43 38 35 33 30 27 24 21 19 17 16 13 5 357 349 344 339 335
77 76 75 73 72 71 70 69 68 67 67 67 66 65 63 62 61 59 56 53 50 48 45 43 41 39 37 34 30 27 25 23 21 18 15 11 6 0 355 350 344 338 333
78 78 76 74 71 69 69 69 68 66 66 65 64 63 61 60 58 55 53 51 48 45 42 40 37 35 32 30 28 25 23 21 19 15 11 6 360 354 348 343 338 335 331
79 77 76 74 71 69 69 68 67 66 65 63 61 59 57 55 53 51 48 46 44 41 38 36 32 28 25 22 20 17 15 13 10 6 2 358 352 346 341 336 332 330 328
77 75 74 72 70 68 67 65 64 62 60 58 56 54 52 49 47 45 41 38 36 33 30 27 24 21 18 16 12 8 5 2 359 355 351 347 343 339 336 332 330 328 326
Height
5755 5753 5752 5750 5749 5748 5747 5747 5747 5746 5746 5746 5746 5747 5747 5748 5749 5750 5751 5752 5753 5754 5755 5756 5757 5758 5758 5759 5760 5760 5760 5761 5761 5761 5761 5761 5760 5759 5758 5758 5757 5756 5755
5747 5745 5744 5742 5741 5740 5739 5739 5739 5738 5738 5738 5738 5739 5739 5740 5741 5741 5742 5743 5744 5745 5746 5747 5748 5749 5749 5750 5750 5751 5751 5752 5752 5752 5752 5751 5750 5749 5749 5748 5747 5746 5745
5740 5738 5736 5735 5733 5733 5732 5731 5731 5731 5730 5731 5731 5731 5731 5732 5733 5733 5734 5735 5736 5737 5738 5739 5739 5740 5740 5741 5741 5742 5743 5743 5743 5743 5742 5742 5741 5740 5739 5738 5737 5736 5735
5732 5730 5728 5727 5726 5725 5724 5724 5723 5723 5723 5723 5723 5723 5724 5724 5725 5726 5726 5727 5728 5729 5730 5731 5731 5732 5732 5732 5733 5734 5734 5734 5734 5734 5733 5733 5732 5731 5730 5729 5728 5727 5726
5724 5722 5721 5719 5719 5718 5717 5716 5716 5716 5716 5716 5716 5716 5717 5717 5718 5718 5719 5720 5721 5722 5722 5723 5724 5724 5724 5724 5725 5725 5726 5726 5726 5725 5725 5724 5723 5722 5721 5720 5719 5718 5717
5716 5715 5713 5712 5712 5711 5710 5710 5710 5709 5709 5709 5709 5710 5710 5710 5711 5712 5713 5713 5714 5715 5716 5716 5717 5717 5717 5717 5717 5718 5718 5718 5718 5717 5717 5716 5715 5714 5713 5712 5711 5710 5709
5709 5708 5707 5706 5706 5705 5705 5704 5704 5703 5704 5704 5704 5704 5704 5705 5705 5706 5707 5707 5708 5709 5710 5710 5710 5710 5710 5710 5710 5710 5710 5710 5710 5710 5709 5708 5707 5706 5705 5704 5703 5703 5702
5703 5702 5701 5700 5700 5700 5699 5699 5699 5699 5699 5699 5699 5699 5699 5700 5700 5701 5702 5702 5703 5704 5704 5704 5705 5705 5705 5705 5704 5704 5704 5704 5704 5703 5702 5701 5700 5699 5698 5698 5697 5697 5696
5699 5698 5697 5696 5695 5695 5695 5695 5695 5695 5694 5694 5694 5695 5695 5695 5696 5697 5698 5698 5698 5699 5700 5700 5700 5700 5700 5700 5700 5699 5698 5698 5697 5697 5696 5695 5694 5693 5692 5692 5692 5692 5692
5696 5694 5693 5692 5692 5691 5691 5691 5691 5691 5691 5691 5691 5691 5691 5692 5692 5693 5694 5694 5695 5695 5696 5696 5696 5696 5696 5695 5695 5694 5694 5693 5692 5691 5691 5690 5689 5689 5688 5688 5687 5687 5687
5693 5692 5690 5690 5689 5688 5688 5688 5688 5688 5688 5688 5688 5688 5688 5689 5689 5690 5691 5691 5692 5692 5692 5693 5693 5692 5692 5692 5691 5691 5690 5689 5688 5688 5687 5687 5686 5686 5685 5684 5684 5684 5684
5691 5690 5689 5688 5687 5686 5686 5686 5686 5686 5686 5686 5686 5686 5686 5686 5687 5687 5688 5689 5689 5690 5690 5690 5690 5690 5689 5689 5688 5687 5687 5686 5686 5685 5684 5684 5683 5683 5683 5682 5682 5682 5682
5690 5689 5688 5687 5686 5685 5685 5684 5684 5684 5684 5684 5685 5685 5685 5685 5685 5686 5687 5687 5688 5688 5688 5688 5688 5687 5687 5686 5685 5685 5684 5684 5683 5682 5682 5681 5681 5681 5680 5680 5680 5680 5680
5689 5688 5687 5686 5685 5685 5684 5684 5684 5684 5684 5684 5683 5683 5684 5684 5684 5685 5685 5686 5686 5686 5687 5686 5686 5686 5685 5684 5684 5683 5682 5682 5681 5681 5680 5679 5679 5679 5679 5679 5679 5679 5679
5690 5689 5688 5687 5686 5685 5685 5685 5684 5684 5684 5684 5683 5683 5683 5684 5684 5684 5685 5685 5685 5685 5685 5685 5685 5684 5684 5683 5682 5681 5681 5680 5680 5679 5678 5678 5678 5678 5678 5678 5678 5677 5677
5691 5690 5689 5688 5688 5687 5687 5686 5686 5685 5685 5685 5684 5684 5684 5684 5684 5685 5685 5685 5685 5685 5685 5685 5685 5684 5683 5683 5682 5681 5680 5679 5678 5678 5678 5677 5677 5677 5677 5677 5677 5676 5676
5694 5693 5692 5691 5690 5690 5689 5689 5688 5688 5687 5686 5686 5686 5686 5686 5686 5686 5686 5686 5686 5686 5686 5685 5685 5684 5683 5682 5681 5681 5680 5679 5678 5678 5677 5677 5677 5677 5676 5676 5676 5675 5674
5696 5696 5695 5694 5693 5693 5692 5691 5691 5690 5690 5689 5689 5688 5688 5688 5688 5687 5687 5687 5687 5687 5687 5686 5685 5685 5684 5683 5682 5681 5680 5679 5679 5678 5677 5677 5677 5676 5676 5675 5675 5674 5673
5700 5699 5698 5698 5697 5696 5695 5695 5694 5693 5693 5692 5692 5691 5691 5690 5690 5690 5690 5689 5689 5689 5688 5687 5687 5686 5685 5684 5683 5682 5681 5680 5679 5678 5678 5677 5676 5676 5675 5675 5674 5673 5672
5703 5703 5702 5702 5701 5700 5699 5698 5697 5697 5696 5696 5695 5695 5694 5694 5694 5693 5693 5692 5692 5691 5690 5689 5689 5688 5686 5685 5684 5683 5682 5681 5680 5679 5678 5677 5676 5676 5675 5674 5673 5672 5671
5707 5707 5706 5706 5705 5704 5703 5702 5701 5701 5700 5700 5699 5699 5698 5698 5697 5696 5696 5695 5694 5693 5692 5691 5690 5689 5688 5687 5686 5685 5684 5682 5681 5680 5679 5678 5677 5676 5675 5674 5673 5672 5670
5712 5711 5711 5710 5709 5708 5707 5707 5706 5705 5704 5704 5703 5702 5702 5701 5700 5700 5699 5698 5697 5696 5695 5693 5692 5691 5690 5689 5688 5686 5685 5683 5682 5681 5680 5679 5677 5676 5675 5673 5672 5671 5669
5716 5715 5715 5714 5713 5712 5712 5711 5710 5709 5709 5708 5707 5706 5705 5704 5704 5703 5702 5701 5700 5698 5697 5696 5695 5693 5692 5690 5689 5687 5686 5685 5683 5682 5680 5679 5678 5676 5675 5673 5672 5670 5668
5720 5720 5719 5718 5717 5717 5716 5715 5714 5714 5713 5712 5711 5710 5709 5708 5707 5706 5705 5704 5702 5701 5700 5698 5697 5695 5694 5692 5691 5689 5687 5686 5684 5682 5681 5679 5678 5676 5674 5673 5671 5669 5667
5724 5724 5723 5722 5722 5721 5720 5719 5718 5718 5717 5716 5715 5714 5713 5712 5710 5709 5708 5706 5705 5703 5702 5700 5699 5697 5696 5694 5692 5691 5689 5687 5685 5683 5681 5679 5678 5676 5673 5671 5669 5667 5664
5728 5728 5727 5726 5726 5725 5724 5723 5722 5721 5721 5720 5718 5717 5716 5715 5713 5712 5711 5709 5707 5706 5704 5702 5700 5699 5697 5695 5693 5691 5689 5687 5685 5683 5681 5679 5677 5674 5672 5669 5666 5664 5661